IGO5385 VAAH-VIDP

Flight info

Callsign IGO5385
Flight time 1h 16m
Altitude 39000
Route UUD1A UUD A347 UKASO UKASO7E
Aircraft A20N/M-SDE2E3FGHIRWXY/LB1

Departure

Time 2026-04-29 19:53
Airport Sardar Vallabh Patel International Airport (VAAH)

Arrival

Time 2026-04-29 21:10
Airport Indira Gandhi International Airport (VIDP)
Time Latitude Longitude Altitude Speed Heading
2026-04-29 19:13 23.07393 72.62715 188 ft 0 kts 130°
2026-04-29 19:44 23.07399 72.62706 196 ft 3 kts 128°
2026-04-29 19:44 23.07412 72.62688 204 ft 3 kts 122°
2026-04-29 19:45 23.07423 72.62667 200 ft 3 kts 109°
2026-04-29 19:45 23.07427 72.62646 204 ft 3 kts 72°
2026-04-29 19:45 23.07423 72.62636 204 ft 1 kts 44°
2026-04-29 19:49 23.07425 72.62638 204 ft 2 kts 44°
2026-04-29 19:49 23.07445 72.62660 193 ft 6 kts 44°
2026-04-29 19:49 23.07485 72.62702 195 ft 10 kts 44°
2026-04-29 19:50 23.07535 72.62780 196 ft 9 kts 96°
2026-04-29 19:50 23.07505 72.62819 196 ft 11 kts 136°
2026-04-29 19:50 23.07455 72.62891 192 ft 11 kts 101°
2026-04-29 19:50 23.07503 72.62964 188 ft 14 kts 47°
2026-04-29 19:51 23.07580 72.63045 188 ft 17 kts 43°
2026-04-29 19:51 23.07662 72.63146 194 ft 19 kts 73°
2026-04-29 19:51 23.07696 72.63293 192 ft 21 kts 75°
2026-04-29 19:51 23.07719 72.63380 197 ft 1 kts 82°
2026-04-29 19:52 23.07720 72.63398 196 ft 4 kts 89°
2026-04-29 19:52 23.07710 72.63418 193 ft 1 kts 170°
2026-04-29 19:52 23.07693 72.63411 190 ft 5 kts 205°
2026-04-29 19:52 23.07592 72.63322 202 ft 44 kts 224°
2026-04-29 19:53 23.07207 72.62903 187 ft 110 kts 224°
2026-04-29 19:53 23.06536 72.62199 196 ft 157 kts 223°
2026-04-29 19:53 23.05730 72.61411 785 ft 149 kts 222°
2026-04-29 19:53 23.05107 72.60616 1595 ft 130 kts 242°
2026-04-29 19:54 23.04782 72.58764 2471 ft 150 kts 279°
2026-04-29 19:54 23.05181 72.57563 2572 ft 192 kts 295°
2026-04-29 19:54 23.06012 72.56214 2537 ft 240 kts 306°
2026-04-29 19:55 23.07263 72.54775 2584 ft 282 kts 311°
2026-04-29 19:55 23.08729 72.53155 2619 ft 318 kts 311°
2026-04-29 19:55 23.10352 72.51339 2505 ft 350 kts 311°
2026-04-29 19:55 23.12104 72.49397 2788 ft 362 kts 313°
2026-04-29 19:56 23.13873 72.47611 2994 ft 340 kts 315°
2026-04-29 19:56 23.15556 72.45930 2998 ft 317 kts 315°
2026-04-29 19:56 23.17260 72.44522 2995 ft 300 kts 328°
2026-04-29 19:56 23.19173 72.43769 2995 ft 287 kts 346°
2026-04-29 19:57 23.21126 72.43750 2986 ft 277 kts
2026-04-29 19:57 23.22341 72.44121 2955 ft 275 kts 17°
2026-04-29 19:57 23.24473 72.45781 3192 ft 288 kts 41°
2026-04-29 19:57 23.25899 72.47323 4050 ft 285 kts 41°
2026-04-29 19:58 23.27294 72.48808 5229 ft 279 kts 42°
2026-04-29 19:58 23.28699 72.50299 6099 ft 285 kts 43°
2026-04-29 19:58 23.30122 72.51812 6960 ft 288 kts 43°
2026-04-29 19:58 23.31542 72.53329 7806 ft 292 kts 42°
2026-04-29 19:59 23.32998 72.54889 8665 ft 295 kts 41°
2026-04-29 19:59 23.34474 72.56472 9487 ft 301 kts 41°
2026-04-29 19:59 23.35976 72.58085 10166 ft 310 kts 40°
2026-04-29 19:59 23.37575 72.59793 10446 ft 334 kts 41°
2026-04-29 20:00 23.39291 72.61628 10726 ft 354 kts 41°
2026-04-29 20:00 23.41091 72.63475 11468 ft 355 kts 36°
2026-04-29 20:00 23.43055 72.65115 12300 ft 357 kts 33°
2026-04-29 20:00 23.45039 72.66749 13110 ft 359 kts 33°
2026-04-29 20:01 23.47045 72.68404 13870 ft 363 kts 33°
2026-04-29 20:01 23.49072 72.70078 14538 ft 368 kts 33°
2026-04-29 20:01 23.51125 72.71774 15203 ft 372 kts 32°
2026-04-29 20:01 23.53202 72.73491 15872 ft 376 kts 32°
2026-04-29 20:02 23.55302 72.75226 16504 ft 381 kts 32°
2026-04-29 20:02 23.57423 72.76980 17149 ft 385 kts 32°
2026-04-29 20:02 23.59571 72.78757 17769 ft 390 kts 32°
2026-04-29 20:02 23.61009 72.79947 18151 ft 392 kts 32°
2026-04-29 20:03 23.63903 72.82343 18918 ft 396 kts 32°
2026-04-29 20:03 23.66102 72.84164 19498 ft 398 kts 32°
2026-04-29 20:03 23.68308 72.85992 20074 ft 402 kts 32°
2026-04-29 20:03 23.70539 72.87841 20639 ft 405 kts 32°
2026-04-29 20:04 23.72791 72.89709 21217 ft 408 kts 32°
2026-04-29 20:04 23.75053 72.91587 21913 ft 408 kts 31°
2026-04-29 20:04 23.77318 72.93469 22516 ft 411 kts 31°
2026-04-29 20:04 23.79606 72.95368 23085 ft 415 kts 31°
2026-04-29 20:05 23.81909 72.97282 23634 ft 417 kts 31°
2026-04-29 20:05 23.84222 72.99203 24134 ft 419 kts 31°
2026-04-29 20:05 23.86554 73.01143 24598 ft 423 kts 31°
2026-04-29 20:05 23.88894 73.03093 25144 ft 423 kts 31°
2026-04-29 20:06 23.91239 73.05044 25589 ft 426 kts 31°
2026-04-29 20:06 23.93603 73.07011 26026 ft 428 kts 31°
2026-04-29 20:06 23.95979 73.08990 26451 ft 431 kts 31°
2026-04-29 20:06 23.98375 73.10986 26883 ft 433 kts 31°
2026-04-29 20:07 24.00780 73.12990 27307 ft 435 kts 31°
2026-04-29 20:07 24.03160 73.14976 27708 ft 437 kts 31°
2026-04-29 20:07 24.05584 73.16998 28073 ft 440 kts 31°
2026-04-29 20:07 24.08020 73.19033 28491 ft 441 kts 31°
2026-04-29 20:08 24.10463 73.21075 28939 ft 441 kts 31°
2026-04-29 20:08 24.12113 73.22454 29207 ft 442 kts 31°
2026-04-29 20:08 24.15365 73.25173 29685 ft 446 kts 31°
2026-04-29 20:08 24.17837 73.27240 30014 ft 448 kts 31°
2026-04-29 20:09 24.20319 73.29318 30274 ft 451 kts 31°
2026-04-29 20:09 24.22754 73.31541 30467 ft 461 kts 37°
2026-04-29 20:09 24.24993 73.34082 30799 ft 467 kts 42°
2026-04-29 20:09 24.27010 73.36904 31137 ft 473 kts 47°
2026-04-29 20:10 24.28927 73.39837 31506 ft 473 kts 47°
2026-04-29 20:10 24.30853 73.42756 31864 ft 473 kts 47°
2026-04-29 20:10 24.32778 73.45667 32202 ft 472 kts 46°
2026-04-29 20:10 24.34714 73.48599 32541 ft 472 kts 46°
2026-04-29 20:11 24.36613 73.51480 32879 ft 472 kts 46°
2026-04-29 20:11 24.38534 73.54403 33197 ft 472 kts 46°
2026-04-29 20:11 24.40455 73.57323 33533 ft 471 kts 46°
2026-04-29 20:11 24.42375 73.60242 33789 ft 471 kts 46°
2026-04-29 20:12 24.44288 73.63153 34040 ft 471 kts 46°
2026-04-29 20:12 24.46205 73.66070 34291 ft 470 kts 46°
2026-04-29 20:12 24.48122 73.68991 34468 ft 472 kts 46°
2026-04-29 20:12 24.50042 73.71918 34693 ft 472 kts 46°
2026-04-29 20:13 24.51959 73.74843 34924 ft 471 kts 46°
2026-04-29 20:13 24.53230 73.76782 35071 ft 472 kts 46°
2026-04-29 20:13 24.55789 73.80692 35383 ft 471 kts 46°
2026-04-29 20:13 24.57702 73.83616 35603 ft 471 kts 46°
2026-04-29 20:14 24.59692 73.86456 35830 ft 465 kts 40°
2026-04-29 20:14 24.61939 73.88966 36042 ft 457 kts 33°
2026-04-29 20:14 24.64403 73.91118 36262 ft 449 kts 26°
2026-04-29 20:14 24.67035 73.92916 36475 ft 444 kts 22°
2026-04-29 20:15 24.69720 73.94605 36696 ft 444 kts 22°
2026-04-29 20:15 24.72399 73.96305 36937 ft 444 kts 22°
2026-04-29 20:15 24.75039 73.97986 37161 ft 444 kts 22°
2026-04-29 20:15 24.77744 73.99709 37425 ft 444 kts 22°
2026-04-29 20:16 24.80384 74.01391 37675 ft 443 kts 22°
2026-04-29 20:16 24.83054 74.03090 37893 ft 443 kts 22°
2026-04-29 20:16 24.85726 74.04792 38099 ft 443 kts 22°
2026-04-29 20:16 24.88398 74.06494 38308 ft 443 kts 22°
2026-04-29 20:17 24.91065 74.08194 38487 ft 443 kts 22°
2026-04-29 20:17 24.93731 74.09894 38649 ft 443 kts 22°
2026-04-29 20:17 24.96399 74.11596 38808 ft 442 kts 22°
2026-04-29 20:17 24.99070 74.13301 38952 ft 443 kts 22°
2026-04-29 20:18 25.01705 74.14983 39103 ft 443 kts 22°
2026-04-29 20:18 25.04366 74.16683 39224 ft 443 kts 22°
2026-04-29 20:18 25.09702 74.20097 39252 ft 442 kts 22°
2026-04-29 20:19 25.15038 74.23511 39233 ft 444 kts 22°
2026-04-29 20:19 25.20385 74.26939 39233 ft 444 kts 22°
2026-04-29 20:20 25.25728 74.30367 39232 ft 444 kts 22°
2026-04-29 20:20 25.31064 74.33793 39232 ft 444 kts 22°
2026-04-29 20:21 25.36372 74.37206 39237 ft 444 kts 22°
2026-04-29 20:21 25.41709 74.40641 39255 ft 444 kts 22°
2026-04-29 20:22 25.47054 74.44084 39231 ft 444 kts 22°
2026-04-29 20:22 25.52388 74.47523 39235 ft 444 kts 22°
2026-04-29 20:23 25.57730 74.50971 39231 ft 444 kts 22°
2026-04-29 20:23 25.63066 74.54420 39227 ft 443 kts 22°
2026-04-29 20:24 25.68359 74.57844 39223 ft 443 kts 22°
2026-04-29 20:24 25.73686 74.61293 39229 ft 443 kts 22°
2026-04-29 20:25 25.79025 74.64755 39219 ft 444 kts 22°
2026-04-29 20:25 25.84360 74.68216 39221 ft 444 kts 22°
2026-04-29 20:26 25.89696 74.71682 39221 ft 444 kts 22°
2026-04-29 20:26 25.94996 74.75129 39219 ft 444 kts 22°
2026-04-29 20:27 25.99462 74.78036 39219 ft 444 kts 22°
2026-04-29 20:27 26.05660 74.82074 39218 ft 444 kts 22°
2026-04-29 20:28 26.10998 74.85557 39212 ft 445 kts 22°
2026-04-29 20:28 26.16340 74.89045 39215 ft 445 kts 22°
2026-04-29 20:29 26.21691 74.92543 39220 ft 446 kts 22°
2026-04-29 20:29 26.27044 74.96047 39222 ft 446 kts 22°
2026-04-29 20:30 26.32401 74.99557 39226 ft 447 kts 22°
2026-04-29 20:30 26.37760 75.03071 39242 ft 447 kts 22°
2026-04-29 20:31 26.43131 75.06597 39237 ft 448 kts 22°
2026-04-29 20:31 26.48515 75.10126 39233 ft 449 kts 22°
2026-04-29 20:32 26.53876 75.13632 39234 ft 449 kts 22°
2026-04-29 20:32 26.58357 75.16567 39236 ft 449 kts 22°
2026-04-29 20:33 26.64655 75.20697 39237 ft 449 kts 22°
2026-04-29 20:33 26.70048 75.24238 39261 ft 449 kts 22°
2026-04-29 20:34 26.75440 75.27783 39242 ft 449 kts 22°
2026-04-29 20:34 26.80791 75.31305 39237 ft 449 kts 22°
2026-04-29 20:35 26.86178 75.34855 39239 ft 449 kts 22°
2026-04-29 20:35 26.91559 75.38404 39241 ft 449 kts 22°
2026-04-29 20:36 26.96034 75.41359 39236 ft 448 kts 22°
2026-04-29 20:36 27.01413 75.44913 39259 ft 448 kts 22°
2026-04-29 20:37 27.06794 75.48474 39238 ft 448 kts 22°
2026-04-29 20:37 27.12162 75.52030 39243 ft 448 kts 22°
2026-04-29 20:38 27.17533 75.55592 39240 ft 448 kts 22°
2026-04-29 20:38 27.22859 75.59128 39234 ft 447 kts 22°
2026-04-29 20:39 27.28217 75.62690 39236 ft 447 kts 22°
2026-04-29 20:39 27.33578 75.66257 39242 ft 447 kts 22°
2026-04-29 20:40 27.38937 75.69827 39229 ft 447 kts 22°
2026-04-29 20:40 27.44297 75.73402 39228 ft 447 kts 22°
2026-04-29 20:41 27.49652 75.76977 39225 ft 447 kts 22°
2026-04-29 20:41 27.55018 75.80562 39169 ft 449 kts 22°
2026-04-29 20:42 27.57677 75.82340 38814 ft 451 kts 22°
2026-04-29 20:42 27.60385 75.84152 38145 ft 455 kts 22°
2026-04-29 20:42 27.63164 75.85852 37274 ft 453 kts 16°
2026-04-29 20:42 27.66072 75.87174 36407 ft 449 kts 10°
2026-04-29 20:43 27.69055 75.88195 35568 ft 448 kts
2026-04-29 20:43 27.72054 75.89199 34746 ft 449 kts
2026-04-29 20:43 27.75056 75.90208 33956 ft 450 kts
2026-04-29 20:43 27.78063 75.91223 33046 ft 452 kts
2026-04-29 20:44 27.81068 75.92242 32291 ft 451 kts
2026-04-29 20:44 27.84093 75.93259 31187 ft 457 kts 10°
2026-04-29 20:44 27.87154 75.94284 30360 ft 458 kts 11°
2026-04-29 20:44 27.90201 75.95311 29814 ft 453 kts 11°
2026-04-29 20:45 27.93196 75.96325 29297 ft 446 kts 11°
2026-04-29 20:45 27.96150 75.97326 28703 ft 441 kts 11°
2026-04-29 20:45 27.99031 75.98298 28110 ft 436 kts 11°
2026-04-29 20:45 28.01924 75.99275 27503 ft 431 kts 11°
2026-04-29 20:46 28.04786 76.00244 26930 ft 427 kts 12°
2026-04-29 20:46 28.07622 76.01204 26327 ft 423 kts 12°
2026-04-29 20:46 28.10442 76.02160 25748 ft 420 kts 12°
2026-04-29 20:46 28.13234 76.03106 25249 ft 415 kts 12°
2026-04-29 20:47 28.15954 76.04033 25083 ft 400 kts 12°
2026-04-29 20:47 28.18574 76.04928 24961 ft 386 kts 12°
2026-04-29 20:47 28.21039 76.05959 24685 ft 383 kts 23°
2026-04-29 20:47 28.23219 76.07788 24229 ft 389 kts 42°
2026-04-29 20:48 28.24808 76.10247 23727 ft 395 kts 58°
2026-04-29 20:48 28.26038 76.13038 23265 ft 395 kts 63°
2026-04-29 20:48 28.27166 76.15866 22804 ft 392 kts 63°
2026-04-29 20:48 28.28297 76.18659 22336 ft 388 kts 62°
2026-04-29 20:49 28.29452 76.21408 21872 ft 385 kts 61°
2026-04-29 20:49 28.30625 76.24122 21413 ft 381 kts 60°
2026-04-29 20:49 28.31805 76.26811 20957 ft 378 kts 60°
2026-04-29 20:49 28.32980 76.29472 20518 ft 376 kts 60°
2026-04-29 20:50 28.34149 76.32116 20082 ft 373 kts 60°
2026-04-29 20:50 28.35306 76.34736 19658 ft 370 kts 60°
2026-04-29 20:50 28.36455 76.37340 19241 ft 367 kts 60°
2026-04-29 20:50 28.37596 76.39928 18832 ft 365 kts 60°
2026-04-29 20:51 28.38727 76.42497 18429 ft 362 kts 60°
2026-04-29 20:51 28.39849 76.45048 18032 ft 360 kts 60°
2026-04-29 20:51 28.40963 76.47580 17592 ft 357 kts 60°
2026-04-29 20:51 28.42067 76.50094 17160 ft 354 kts 60°
2026-04-29 20:52 28.43159 76.52577 16894 ft 346 kts 60°
2026-04-29 20:52 28.44198 76.54949 16777 ft 333 kts 60°
2026-04-29 20:52 28.45214 76.57270 16578 ft 325 kts 60°
2026-04-29 20:52 28.46217 76.59557 16194 ft 322 kts 60°
2026-04-29 20:53 28.47215 76.61833 15814 ft 321 kts 59°
2026-04-29 20:53 28.48210 76.64101 15443 ft 319 kts 59°
2026-04-29 20:53 28.49197 76.66354 15068 ft 317 kts 59°
2026-04-29 20:53 28.50179 76.68598 14708 ft 316 kts 59°
2026-04-29 20:54 28.51721 76.73236 13958 ft 320 kts 84°
2026-04-29 20:54 28.51460 76.75757 13573 ft 323 kts 102°
2026-04-29 20:54 28.50926 76.78234 13185 ft 322 kts 102°
2026-04-29 20:55 28.50391 76.80697 12825 ft 319 kts 102°
2026-04-29 20:55 28.49862 76.83143 12466 ft 317 kts 102°
2026-04-29 20:55 28.49343 76.85563 12100 ft 315 kts 102°
2026-04-29 20:55 28.48832 76.87953 11936 ft 305 kts 103°
2026-04-29 20:56 28.48348 76.90222 11827 ft 294 kts 103°
2026-04-29 20:56 28.47872 76.92456 11572 ft 289 kts 103°
2026-04-29 20:56 28.47400 76.94672 11250 ft 287 kts 103°
2026-04-29 20:56 28.46928 76.96882 10922 ft 286 kts 103°
2026-04-29 20:57 28.46461 76.99063 10580 ft 283 kts 103°
2026-04-29 20:57 28.45994 77.01241 10175 ft 283 kts 103°
2026-04-29 20:57 28.45529 77.03404 9806 ft 281 kts 103°
2026-04-29 20:57 28.45067 77.05557 9443 ft 278 kts 103°
2026-04-29 20:58 28.44609 77.07684 9061 ft 276 kts 103°
2026-04-29 20:58 28.44155 77.09792 8703 ft 273 kts 103°
2026-04-29 20:58 28.43715 77.11837 8582 ft 260 kts 103°
2026-04-29 20:58 28.43300 77.13764 8475 ft 248 kts 103°
2026-04-29 20:59 28.42897 77.15628 8371 ft 237 kts 103°
2026-04-29 20:59 28.42509 77.17429 8145 ft 233 kts 103°
2026-04-29 20:59 28.42124 77.19216 7862 ft 232 kts 103°
2026-04-29 20:59 28.41748 77.20958 7775 ft 218 kts 103°
2026-04-29 21:00 28.41401 77.22564 7663 ft 201 kts 102°
2026-04-29 21:00 28.41080 77.24049 7567 ft 187 kts 103°
2026-04-29 21:00 28.40779 77.25445 7403 ft 178 kts 103°
2026-04-29 21:00 28.40485 77.26809 7153 ft 177 kts 103°
2026-04-29 21:01 28.40196 77.28150 6919 ft 176 kts 103°
2026-04-29 21:01 28.39902 77.29491 6709 ft 173 kts 104°
2026-04-29 21:01 28.39604 77.30805 6479 ft 171 kts 104°
2026-04-29 21:01 28.39304 77.32114 6354 ft 173 kts 104°
2026-04-29 21:02 28.38999 77.33443 6242 ft 173 kts 105°
2026-04-29 21:02 28.38801 77.34780 6102 ft 172 kts 81°
2026-04-29 21:02 28.39317 77.35941 5858 ft 164 kts 35°
2026-04-29 21:02 28.40338 77.36363 5538 ft 154 kts 352°
2026-04-29 21:03 28.41318 77.35989 5134 ft 150 kts 323°
2026-04-29 21:03 28.42202 77.35377 4750 ft 151 kts 324°
2026-04-29 21:03 28.43114 77.34774 4404 ft 151 kts 326°
2026-04-29 21:03 28.44026 77.34183 4042 ft 151 kts 326°
2026-04-29 21:04 28.44939 77.33596 3738 ft 147 kts 327°
2026-04-29 21:04 28.45862 77.33001 3526 ft 156 kts 327°
2026-04-29 21:04 28.46794 77.32399 3310 ft 154 kts 327°
2026-04-29 21:04 28.47726 77.31797 3085 ft 154 kts 327°
2026-04-29 21:05 28.48651 77.31182 2868 ft 154 kts 322°
2026-04-29 21:05 28.49381 77.30321 2657 ft 151 kts 298°
2026-04-29 21:05 28.49812 77.29241 2597 ft 151 kts 285°
2026-04-29 21:05 28.50103 77.28095 2585 ft 148 kts 282°
2026-04-29 21:06 28.50350 77.26952 2590 ft 152 kts 281°
2026-04-29 21:06 28.50597 77.25800 2586 ft 148 kts 280°
2026-04-29 21:06 28.50843 77.24647 2597 ft 151 kts 281°
2026-04-29 21:06 28.51090 77.23496 2588 ft 149 kts 281°
2026-04-29 21:07 28.51335 77.22350 2596 ft 149 kts 281°
2026-04-29 21:07 28.51578 77.21219 2592 ft 147 kts 280°
2026-04-29 21:07 28.51820 77.20082 2551 ft 151 kts 280°
2026-04-29 21:07 28.52067 77.18931 2360 ft 146 kts 280°
2026-04-29 21:08 28.52308 77.17797 2180 ft 150 kts 280°
2026-04-29 21:08 28.52550 77.16656 1936 ft 149 kts 281°
2026-04-29 21:08 28.52849 77.15512 1761 ft 151 kts 282°
2026-04-29 21:08 28.53138 77.14364 1640 ft 149 kts 282°
2026-04-29 21:09 28.53382 77.13205 1401 ft 149 kts 278°
2026-04-29 21:09 28.53593 77.12059 1240 ft 153 kts 280°
2026-04-29 21:09 28.53820 77.10880 1030 ft 151 kts 279°
2026-04-29 21:09 28.54052 77.09739 866 ft 148 kts 281°
2026-04-29 21:10 28.54298 77.08600 758 ft 145 kts 281°
2026-04-29 21:10 28.54474 77.07670 741 ft 91 kts 283°
2026-04-29 21:10 28.54576 77.07296 738 ft 31 kts 305°
2026-04-29 21:10 28.54669 77.07169 737 ft 0 kts 313°
2026-04-29 21:11 28.54677 77.07159 737 ft 4 kts 313°
2026-04-29 21:12 28.54713 77.07115 736 ft 11 kts 313°
2026-04-29 21:12 28.54775 77.07038 734 ft 16 kts 309°
2026-04-29 21:12 28.54819 77.06925 731 ft 14 kts 301°
2026-04-29 21:12 28.54918 77.06905 730 ft 17 kts 17°
2026-04-29 21:13 28.55048 77.06946 730 ft 21 kts 13°
2026-04-29 21:13 28.55153 77.06972 731 ft 14 kts 13°
2026-04-29 21:13 28.55202 77.07048 732 ft 14 kts 95°
2026-04-29 21:13 28.55179 77.07160 734 ft 16 kts 104°
2026-04-29 21:14 28.55202 77.07267 735 ft 16 kts 35°
2026-04-29 21:14 28.55221 77.07377 736 ft 16 kts 103°
2026-04-29 21:14 28.55190 77.07505 738 ft 17 kts 105°
2026-04-29 21:14 28.55157 77.07645 740 ft 19 kts 105°
2026-04-29 21:15 28.55122 77.07797 742 ft 21 kts 105°
2026-04-29 21:15 28.55085 77.07961 740 ft 22 kts 104°
2026-04-29 21:15 28.55045 77.08135 744 ft 23 kts 103°
2026-04-29 21:15 28.55016 77.08291 748 ft 16 kts 87°
2026-04-29 21:16 28.55071 77.08360 744 ft 0 kts 75°
2026-04-29 21:16 28.55075 77.08369 744 ft 3 kts 60°
2026-04-29 21:16 28.55094 77.08402 747 ft 7 kts 58°
2026-04-29 21:16 28.55126 77.08461 747 ft 10 kts 59°
2026-04-29 21:17 28.55170 77.08499 747 ft 9 kts 354°
2026-04-29 21:17 28.55208 77.08464 747 ft 1 kts 319°
2026-04-29 21:17 28.55221 77.08454 746 ft 1 kts 325°
2026-04-29 21:17 28.55235 77.08444 746 ft 0 kts 329°